Location: *
(28.2408°N, 53.4600°E)
Time: 02:47:09
(UTC+00:00)

SL-4 R/B - Pass Details

Date: 22 September 2019
Orbit: 428 x 667 km, 51.6° (Epoch: 16 October)

Event Time Altitude Azimuth Distance (km) Brightness Sun altitude
Rises 16:21:14 0° 226° (SW) 2,636 5.9 -26.5°
Reaches altitude 10° 16:23:31 10° 228° (SW) 1,709 4.9 -27.0°
Enters shadow 16:24:52 20° 231° (SW) 1,172 4.0 -27.3°
